sat.trackr.live / text

‹ back to catalog

STARLINK-30944

NORAD 58451 · 2023-183Q

PAYLOAD ACTIVE UNKNOWN

§ Identity

Operator
Country
US
Launch date
2023-11-28
Launch site
AFETR
Launch vehicle
Mass (kg)
RCS (m²)

Purposes: comms

External: N2YO · Heavens-Above · Gunter

§ Orbital elements

Epoch: 2026-05-24T21:58:17.567904Z

Period
94.27 min
Inclination
43.0020°
Eccentricity
0.0001915
Mean motion
15.27577462 rev/d
Perigee alt
481.7 km
Apogee alt
484.4 km
Semi-major
6,861.2 km
B*
8.5076e-5
RAAN
331.0024°
Arg perigee
259.3354°
Mean anomaly
100.7282°
Rev number
13,836

§ Raw data

STARLINK-309441 58451U 23183Q   26144.91548111  .00002079  00000+0  85076-4 0  99942 58451  43.0020 331.0024 0001915 259.3354 100.7282 15.27577462138361

JSON: /api/v1/satellites/58451 · /tle

For live sub-satellite position, see the globe view (requires WebGL).

§ Visibility from observer

Set your observer location to see the next 7 days of passes ≥ 10°. The values pass through the URL so the page stays shareable.

No JS? Fill the form by hand. The geolocation button needs JavaScript.